Regional Weather Roundup
Issued by NWS

Home | Current Version | Previous Version | Text Only | Print | Product List | Glossary Off
Versions: 1 2 3 4 5 6 7 8 9 10 11 12 13 14 15 16 17 18 19 20 21 22 23 24 25 26 27 28 29 30 31 32 33 34 35 36 37 38 39 40 41 42 43 44 45 46 47 48 49 50

000
ASUS43 KMPX 201301
RWRMN
WEATHER ROUNDUP FOR MINNESOTA
NATIONAL WEATHER SERVICE TWIN CITIES/CHANHASSEN MN
800 AM CDT FRI APR 20 2018


NOTE: "FAIR" INDICATES FEW OR NO CLOUDS BELOW 12,000 FEET WITH NO
SIGNIFICANT WEATHER AND/OR OBSTRUCTIONS TO VISIBILITY. N/A MEANS
CURRENT SKY AND/OR WEATHER CONDITIONS ARE NOT AVAILABLE.

MNZ060>063-068>070-201400-
   Twin Cities Metro

CITY           SKY/WX    TMP DP  RH WIND       PRES   REMARKS
TWIN CITIES    FAIR      35  28  75 CALM      30.51R
ST PAUL        FAIR      31  28  89 CALM      30.53R
CRYSTAL        FAIR      29  23  78 CALM      30.50R
BLAINE         PTSUNNY   28  25  86 CALM      30.49R
LAKEVILLE      FAIR      27  23  86 CALM      30.50R
EDEN PRAIRIE   FAIR      31  26  82 CALM      30.49R
SOUTH ST PAUL  FAIR      31  26  79 CALM      30.52R
LAKE ELMO      FAIR      28  27  93 CALM      30.52R
$$
MNZ001>005-007-008-013>017-022>024-027-028-201400-
   Northwest Minnesota

CITY           SKY/WX    TMP DP  RH WIND       PRES   REMARKS
BEMIDJI        FAIR      32  26  78 CALM      30.43R
HALLOCK        FAIR      36  32  87 SE6       30.39S
ROSEAU         FAIR      36  30  80 S6        30.41R
WARROAD        FAIR      37  30  75 S3        30.41S
THIEF RVR FALL FAIR      34  30  85 SE6       30.42R WCI  29
CROOKSTON      FAIR      34  32  93 SE5       30.42S WCI  30
FOSSTON        FAIR      34  28  80 S6        30.43R WCI  29
DETROIT LAKES  FAIR      34  30  86 CALM      30.44S
MOORHEAD       FAIR      36  30  80 SE3       30.44S
PARK RAPIDS    FAIR      33  28  81 S3        30.43R
MAHNOMEN       FAIR      36  31  82 S5        30.43R
$$
MNZ006-009>011-018-025>026-201400-
   North Central Minnesota

CITY           SKY/WX    TMP DP  RH WIND       PRES   REMARKS
BAUDETTE       FAIR      33  26  75 CALM      30.41R
FLAG ISLAND    FAIR      30  25  80 SE3       30.39S
INTL FALLS     FAIR      33  27  78 CALM      30.41S
WASKISH        PTSUNNY   32  27  80 CALM      30.43R
BIG FORK       FAIR      28  23  80 CALM      30.42S
LONGVILLE      FAIR      28  27  93 CALM      30.44S
GRAND RAPIDS   FAIR      29  24  82 CALM      30.45R
CRANE LAKE     FAIR      25  21  86 CALM      30.45S
ORR            FAIR      28  19  69 CALM      30.40R
COOK           FAIR      27  21  80 CALM      30.42S
WALKER         FAIR      33  28  82 CALM      30.44R
$$
MNZ012-019>021-037-201400-
   Northeast Minnesota

CITY           SKY/WX    TMP DP  RH WIND       PRES   REMARKS
DULUTH         FAIR      38  28  67 CALM      30.43R
ELY            FAIR      27  19  74 CALM      30.42S
HIBBING        FAIR      28  22  78 CALM      30.43R
EVELETH        FAIR      30  21  70 CALM      30.44R
DULUTH HARBOR  FAIR      37  27  65 SW9       30.46R
TWO HARBORS    FAIR      46  25  42 NW5       30.41R
SILVER BAY     FAIR      34  27  75 CALM      30.41S
GRAND MARAIS     N/A     42  25  50 CALM      30.43R
G MARAIS ARPRT FAIR      34  18  51 CALM      30.41S
$$
MNZ029>031-032-039>041-046>048-054>057-064-201400-
   West Central Minnesota

CITY           SKY/WX    TMP DP  RH WIND       PRES   REMARKS
FERGUS FALLS   FAIR      36  28  75 SE6       30.43S
WHEATON        CLOUDY    32  30  93 SE6       30.46R WCI  26
MORRIS         MOSUNNY   34  28  80 SE6       30.43F WCI  29
ALEXANDRIA     FAIR      37  28  70 E3        30.45R
ELBOW LAKE     FAIR      33  28  82 SE5       30.44F WCI  29
WADENA         FAIR      32  28  86 CALM      30.45R
GLENWOOD       FAIR      34  27  75 CALM      30.46S
APPLETON       CLOUDY    32  27  80 SE5       30.44F WCI  27
BENSON         CLOUDY    34  27  75 S5        30.47S WCI  30
ORTONVILLE     MOSUNNY   30  27  86 SE5       30.43S WCI  25
MADISON        CLOUDY    32  25  74 SE5       30.44S WCI  27
WILLMAR        FAIR      30  28  93 CALM      30.49S
$$
MNZ033>034-036-042>043-049>051-058-059-201400-
   Central Minnesota

CITY           SKY/WX    TMP DP  RH WIND       PRES   REMARKS
ST CLOUD       FAIR      31  30  96 CALM      30.48R
SAUK CENTRE    FAIR      31  28  90 CALM      30.47S
PAYNESVILLE    FAIR      32  28  86 CALM      30.48S
AITKIN         FAIR      34  27  75 CALM      30.44S
PINE RIVER     FAIR      28  25  86 CALM      30.47S
BRAINERD       FAIR      33  24  69 CALM      30.46R
STAPLES        FAIR      30  25  80 CALM      30.45S
LONG PRAIRIE   FAIR      32  28  86 CALM      30.47R
LITTLE FALLS   FAIR      32  23  69 CALM      30.47S
LITCHFIELD     FAIR      32  28  86 CALM      30.49R
BUFFALO        FAIR      30  25  82 CALM      30.51R
MAPLE LAKE     FAIR      32  29  88 CALM      30.50R
HUTCHINSON     FAIR      29  28  95 CALM      30.50S
$$
MNZ037-044-045-052-053-201400-
   East Central Minnesota

CITY           SKY/WX    TMP DP  RH WIND       PRES   REMARKS
PRINCETON      FAIR      32  30  93 CALM      30.49R
MORA           FAIR      32  30  93 CALM      30.50R
CAMBRIDGE      FAIR      36  27  69 CALM      30.49S
RUSH CITY      FAIR      32  28  84 CALM      30.49R
MOOSE LAKE     FAIR      30  23  74 CALM      30.45R
HINCKLEY       FAIR      32  30  93 CALM      30.48S
CLOQUET        FAIR      37  25  60 W3        30.44R
MCGREGOR       FAIR      32  28  86 CALM      30.46R
$$
MNZ071>073-080-081-089-090-097-098-201400-
   Southwest Minnesota

CITY           SKY/WX    TMP DP  RH WIND       PRES   REMARKS
MONTEVIDEO     MOSUNNY   30  27  86 S6        30.45F WCI  24
GRANITE FALLS  CLOUDY    31  27  84 E5        30.48S WCI  26
CANBY          CLOUDY    30  21  69 E3        30.45R
MARSHALL       MOSUNNY   29  20  69 SE7       30.45F WCI  22
REDWOOD FALLS  CLOUDY    26  23  88 E5        30.47S WCI  20
OLIVIA         CLOUDY    32  28  86 CALM      30.47S
PIPESTONE      CLOUDY   N/A N/A N/A SE7       30.41R
WINDOM         CLOUDY    28  12  50 CALM      30.45F
WORTHINGTON    CLOUDY    28  21  75 SE6       30.44F WCI  22
JACKSON        CLOUDY    30  19  64 SE6       30.46S WCI  24
TRACY          CLOUDY    34  21  60 S8        30.44R WCI  27
SLAYTON        CLOUDY    24  19  81 SE6       30.43F WCI  17
$$
MNZ065>067-074>077-082>085-091>093-201400-
   South Central Minnesota

CITY           SKY/WX    TMP DP  RH WIND       PRES   REMARKS
MANKATO        FAIR      25  21  85 SE6       30.50S WCI  18
NEW ULM        CLOUDY    25  21  86 CALM      30.49S
ST JAMES       CLOUDY    19  16  86 CALM      30.50R
FAIRMONT       CLOUDY    22  17  81 CALM      30.49S
GLENCOE        FAIR      26  26 100 CALM      30.49S
OWATONNA       FAIR      28  25  86 CALM      30.50R
WASECA         FAIR      25  21  86 CALM      30.51S
ALBERT LEA     FAIR      21  19  93 CALM      30.49S FOG
$$
MNZ078>079-086>088-094>096-201400-
   Southeast Minnesota

CITY           SKY/WX    TMP DP  RH WIND       PRES   REMARKS
ROCHESTER      FAIR      28  24  85 MISG      30.50R
RED WING       FAIR      30  23  74 CALM      30.51R
STANTON        FAIR      27  23  83 S3        30.50R
DODGE CENTER   FAIR      28  21  74 CALM      30.50R
WINONA         FAIR      30  27  86 CALM      30.51R
AUSTIN         FAIR      21  19  93 CALM      30.49S FOG
PRESTON        FAIR      30  21  70 CALM      30.50S
$$
ABBREVIATIONS USED IN REMARKS
   TC - TEMPERATURES IN CELSIUS
  WCI - WIND CHILL INDEX
   HX - HEAT INDEX
  VSB - VISIBILITY
$$




USA.gov is the U.S. government's official web portal to all federal, state and local government web resources and services.